Showing default

YUNHAI 1-04, 58073

Orbit data source: Space-Track

YUNHAI 1-04, 58073 is a payload satellite owned by SAST (CN) in SSO that was launched on Sun, 15 Oct 2023 UTC via a CHANG ZHENG 2D launch vehicle from the Jiuquan Satellite Launch Center, China (JSC). Payload-class satellites include a variety of spacecraft equipped with specific instruments for various scientific and technological missions. These include communications satellites like Starlink; space stations such as the ISS; scientific satellites like the Hubble; Earth observation satellites from companies like Planet Labs, Umbra, and HawkEye 360; GPS; miniature CubeSats for education and research; and military/defense satellites.

Loading next visibility...
Identifier
58073, 2023-159A
Orbit
SSO
Country
Flag of CNCN / PRC
Related business
Manufacturer
SAST
Mission
Operational Defense Weather
Bus & Motor
YUNHAI-1, Unknown motor
Mass
~800 kg wet, ~800 kg dry
Launch date (UTC)
2023-10-15 (3 years ago)
Launch vehicle
CHANG ZHENG 2D
Launch site
Jiuquan Satellite Launch Center, China (JSC)
Object type
Payload
Rocket body
Debris
Shape & HBR
Box + 2 Pan, 2.0 m
Radar Cross Section
5.141 m², Large (>1 m²)

Expand to show TLE details & history
Last TLE update: 21 hours ago

TLE from 21 hours ago
0 YUNHAI 1-04
1 58073U 23159A   26172.55167884  .00000253  00000-0  10868-3 0  9991
2 58073  98.4979 198.2133 0001650 131.9768 228.1557 14.32732500140423
Epoch: 2026-06-21T13:14Z
TLE epoch observation values (Epoch: 2026-06-21T13:14:25.051Z)
Latitude
-0.00003°
Longitude
89.85861°
Altitude
786.339 km
Speed
7.46 km/s
True Right ascension
13h 12m 51s
True Declination
0° 00' 00"
Sunlit
Object was in daylight at epoch
Visualization orbit readout
Latitude
Unknown
Longitude
Unknown
Altitude
Unknown
Speed
Unknown
Apparent Right ascension
Unknown
Apparent Declination
Unknown
Sunlit
N/A
Visualization observer readout
Local Sidereal Time
21:29:04
Azimuth
Unknown
Elevation
Unknown
Doppler factor
Unknown
Orbital elements
Apogee altitude
780.924 km
Perigee altitude
778.562 km
Semi-major axis
7,157.88 km
Eccentricity
0.00017
Inclination
98.4979°
RAAN
198.2133°
Arg. of periapsis
131.9768°
True anomaly
228.14162°
Mean anomaly
228.1557°
Eccentric anomaly
228.14866°
Mean motion
3.58399 °/min
Orbital period
100.45 mins
BSTAR
0.00010868
Loading maneuver chart data...
Computing Atmospheric mass density...
Loading historical data...
Loading historical data...
Loading historical data...
Loading historical data...
Loading historical data...
Loading historical data...
Loading historical data...
Other satellites on launch #159 in the year 2023 (2023-10-15 UTC)

Documentation

Showing up to 5 results
|